sat.trackr.live / text

‹ back to catalog

WGS F7 (USA 263)

NORAD 40746 · 2015-036A

PAYLOAD ACTIVE UNKNOWN

§ Identity

Operator
Country
US
Launch date
2015-07-24
Launch site
AFETR
Launch vehicle
Mass (kg)
RCS (m²)
7.25

Purposes: comms

External: N2YO · Heavens-Above · Gunter

§ Orbital elements

Epoch: 2026-09-19T07:32:23.666784Z

Period
1,436.07 min
Inclination
0.0123°
Eccentricity
0.0000409
Mean motion
1.00273353 rev/d
Perigee alt
35,784.4 km
Apogee alt
35,787.9 km
Semi-major
42,164.3 km
B*
0.0000e+0
RAAN
157.7077°
Arg perigee
294.1324°
Mean anomaly
194.4968°
Rev number
4,081

§ Raw data

WGS F7 (USA 263)1 40746U 15036A   26262.31416281  .00000014  00000+0  00000+0 0  99932 40746   0.0123 157.7077 0000409 294.1324 194.4968  1.00273353 40819

JSON: /api/v1/satellites/40746 · /tle

For live sub-satellite position, see the globe view (requires WebGL).

§ Visibility from observer

Set your observer location to see the next 7 days of passes ≥ 10°. The values pass through the URL so the page stays shareable.

No JS? Fill the form by hand. The geolocation button needs JavaScript.